sat.trackr.live / text

‹ back to catalog

STARLINK-11320 [DTC]

NORAD 61942 · 2024-209D

PAYLOAD ACTIVE UNKNOWN

§ Identity

Operator
Country
US
Launch date
2024-11-14
Launch site
AFWTR
Launch vehicle
Mass (kg)
RCS (m²)

Purposes: comms

External: N2YO · Heavens-Above · Gunter

§ Orbital elements

Epoch: 2026-05-24T23:13:54.152832Z

Period
91.74 min
Inclination
53.1568°
Eccentricity
0.0000910
Mean motion
15.69716686 rev/d
Perigee alt
359.1 km
Apogee alt
360.3 km
Semi-major
6,737.8 km
B*
7.0019e-4
RAAN
355.5780°
Arg perigee
53.0822°
Mean anomaly
307.0279°
Rev number
8,865

§ Raw data

STARLINK-11320 [DTC]1 61942U 24209D   26144.96798788  .00085136  00000+0  70019-3 0  99902 61942  53.1568 355.5780 0000910  53.0822 307.0279 15.69716686 88655

JSON: /api/v1/satellites/61942 · /tle

For live sub-satellite position, see the globe view (requires WebGL).

§ Visibility from observer

Set your observer location to see the next 7 days of passes ≥ 10°. The values pass through the URL so the page stays shareable.

No JS? Fill the form by hand. The geolocation button needs JavaScript.